Temp
-5 -5 -6 -6 -6 -6 -6 -6 -5 -5 -5 -5 -4 -3 -2 -1 -1 -1 -0 1 3 4 8 12 13 14 14 14 15 15 15 16 16 14 13 13 12 12 13 13 14 14 14
-5 -5 -5 -6 -6 -6 -6 -6 -6 -6 -5 -5 -4 -4 -3 -2 -1 -1 -1 0 2 3 6 9 13 13 13 14 14 14 15 15 16 15 13 11 12 12 12 13 13 13 13
-5 -5 -5 -6 -6 -6 -6 -6 -6 -6 -6 -5 -5 -4 -3 -2 -2 -1 -1 -0 0 2 4 6 12 13 13 13 13 13 14 14 15 15 11 10 10 12 11 11 11 12 13
-5 -5 -5 -5 -6 -6 -6 -6 -6 -6 -6 -5 -5 -4 -4 -3 -3 -2 -1 -1 1 2 4 6 8 13 13 13 13 13 13 13 14 14 11 10 10 10 10 10 10 10 12
-5 -6 -6 -6 -6 -6 -6 -6 -6 -6 -6 -6 -5 -5 -4 -3 -3 -2 -2 -1 -0 0 2 5 8 11 13 14 13 13 13 13 13 13 11 11 9 9 9 10 10 10 10
-6 -6 -6 -6 -6 -6 -5 -5 -5 -5 -5 -6 -5 -5 -5 -4 -3 -2 -2 -1 -1 1 2 4 7 10 12 13 13 13 13 13 13 12 12 11 10 10 9 10 10 9 9
-6 -6 -6 -6 -6 -5 -5 -6 -6 -5 -5 -6 -6 -5 -4 -4 -3 -2 -2 -1 -1 0 2 3 6 9 11 12 12 13 13 13 13 12 12 11 11 11 10 9 9 10 11
-6 -6 -6 -6 -6 -6 -6 -6 -6 -5 -5 -6 -5 -5 -5 -4 -3 -3 -2 -1 -0 0 2 3 6 8 11 12 11 11 11 12 12 12 12 12 11 11 11 12 11 10 11
-6 -6 -6 -6 -6 -6 -6 -6 -6 -5 -5 -5 -5 -5 -5 -4 -4 -3 -2 -1 -0 1 2 4 5 8 10 12 11 11 12 11 11 12 12 11 11 11 11 10 10 10 8
-7 -7 -7 -7 -6 -6 -6 -6 -6 -6 -5 -5 -5 -5 -4 -4 -4 -2 -1 -1 -0 0 2 4 6 7 10 11 11 11 11 11 10 10 11 11 11 11 11 11 10 8 8
-7 -7 -7 -6 -6 -6 -6 -6 -6 -5 -5 -5 -5 -5 -4 -3 -3 -2 -1 -1 -1 -0 1 4 5 7 9 11 11 11 11 11 10 10 10 10 10 11 10 10 10 10 8
-7 -6 -6 -5 -5 -5 -5 -5 -5 -5 -5 -5 -5 -4 -3 -3 -2 -1 -1 -1 -1 -1 -0 1 3 7 9 10 11 11 11 10 10 10 9 9 9 8 9 10 10 9 9
-6 -6 -5 -5 -5 -5 -5 -5 -5 -5 -5 -4 -4 -4 -3 -2 -2 -1 -1 -1 -1 -1 -1 -0 2 5 9 9 10 11 10 10 9 9 9 8 9 9 9 9 8 8 8
-6 -6 -5 -5 -4 -4 -5 -5 -5 -5 -5 -4 -4 -3 -3 -2 -2 -2 -1 -1 -1 -0 -0 -0 1 3 7 9 9 9 10 10 9 9 8 7 9 8 8 8 7 6 6
-6 -6 -5 -4 -4 -4 -4 -4 -4 -4 -4 -4 -4 -3 -3 -2 -2 -1 -1 -1 -1 -1 -0 -0 0 1 2 3 7 8 9 8 8 6 6 7 7 7 7 7 7 5 5
-6 -6 -5 -5 -4 -4 -4 -4 -4 -4 -3 -3 -3 -2 -2 -2 -1 -2 -2 -2 -1 -1 -0 -0 -0 -0 -0 1 1 3 4 5 4 5 5 6 6 6 5 4 5 5 4
-7 -6 -5 -5 -5 -4 -4 -3 -3 -3 -3 -3 -3 -2 -2 -1 -1 -1 -2 -1 -1 -0 -0 -1 -1 -1 -1 -0 0 0 1 3 5 5 5 5 5 4 3 2 3 2 1
-7 -6 -6 -5 -5 -5 -5 -4 -4 -4 -4 -4 -4 -3 -3 -2 -2 -1 -1 -1 -1 -1 -0 -1 -1 -1 -1 -1 -0 -0 0 2 3 3 3 3 3 3 1 1 1 1 0
-7 -6 -6 -6 -6 -5 -5 -5 -5 -5 -5 -5 -4 -4 -4 -4 -4 -4 -3 -3 -2 -2 -2 -2 -1 -1 -1 -1 -1 -1 -0 -0 1 1 1 1 1 1 0 0 0 0 -0
-8 -7 -6 -6 -6 -6 -6 -6 -5 -5 -5 -5 -5 -5 -5 -5 -5 -5 -5 -4 -4 -3 -3 -3 -2 -2 -2 -2 -1 -1 -1 -1 -1 -0 -1 -0 -0 -0 -0 -0 -1 -1 -1
-8 -8 -6 -6 -6 -6 -6 -6 -6 -6 -6 -6 -6 -5 -5 -6 -5 -5 -5 -5 -5 -5 -4 -4 -4 -3 -3 -2 -2 -2 -2 -2 -2 -2 -2 -2 -2 -2 -2 -2 -1 -2 -2
-9 -8 -7 -7 -7 -6 -7 -7 -7 -7 -7 -7 -7 -7 -6 -6 -7 -6 -6 -6 -6 -5 -5 -5 -4 -4 -4 -3 -3 -2 -2 -2 -2 -2 -3 -3 -3 -3 -3 -2 -3 -3 -4
-9 -9 -8 -8 -7 -7 -7 -7 -7 -7 -7 -7 -7 -7 -7 -7 -7 -7 -7 -7 -6 -6 -6 -5 -5 -4 -4 -4 -4 -3 -3 -3 -3 -3 -3 -3 -3 -3 -3 -3 -4 -4 -5
-10 -10 -9 -8 -8 -7 -7 -7 -7 -7 -7 -7 -8 -8 -8 -8 -8 -8 -8 -7 -7 -6 -6 -5 -5 -5 -5 -5 -4 -4 -3 -3 -3 -3 -3 -4 -4 -4 -4 -4 -4 -5 -5
-11 -10 -10 -9 -9 -8 -8 -8 -7 -7 -7 -7 -7 -8 -8 -8 -8 -9 -9 -8 -8 -7 -7 -6 -6 -5 -5 -5 -5 -4 -4 -4 -3 -4 -4 -4 -4 -4 -5 -5 -5 -5 -5
-11 -11 -11 -10 -9 -9 -9 -8 -8 -8 -7 -7 -7 -8 -8 -8 -8 -9 -9 -8 -8 -8 -7 -7 -7 -6 -6 -6 -5 -5 -4 -4 -4 -4 -4 -4 -5 -5 -5 -5 -6 -6 -6
Height
808 803 798 793 789 784 780 775 769 764 760 755 751 746 742 737 734 730 726 721 722 719 715 715 718 723 728 734 738 744 748 753 757 763 767 770 774 777 783 786 790 794 797
803 798 793 787 783 778 774 769 764 759 754 750 746 742 737 733 729 726 722 717 714 715 712 708 710 715 720 725 731 735 740 745 749 755 762 763 768 771 775 780 783 786 790
798 792 787 781 776 771 767 762 758 753 749 744 741 736 732 728 723 719 715 712 712 705 706 704 703 706 710 716 721 728 733 739 742 748 754 758 763 766 770 774 777 780 783
793 787 781 775 770 765 760 755 752 748 743 739 735 731 727 723 718 715 709 705 701 705 695 695 696 697 699 706 713 720 726 733 735 740 744 751 756 760 764 767 771 773 776
788 782 776 770 764 759 754 749 745 742 738 733 729 725 721 717 713 709 705 702 697 688 696 687 687 685 690 696 703 711 717 725 728 733 737 742 747 752 756 758 764 768 771
782 775 770 763 758 752 748 743 739 735 731 727 722 718 714 709 706 703 701 696 692 688 680 679 677 679 684 688 693 699 708 713 719 723 728 731 736 742 748 753 758 762 769
775 768 763 757 751 746 741 737 732 728 724 719 714 710 706 703 699 695 693 689 684 678 677 674 674 674 675 680 686 691 697 704 709 714 717 721 728 732 738 745 749 753 757
769 762 756 751 745 740 735 730 726 721 717 713 709 705 700 695 692 688 685 680 675 671 666 663 662 666 666 670 677 684 688 694 699 705 710 715 720 725 729 732 738 747 753
763 756 750 745 738 733 728 724 720 715 710 706 702 697 693 687 684 680 676 670 664 659 655 656 655 654 658 662 667 671 678 684 692 697 703 709 715 719 724 729 735 742 747
758 750 744 738 732 726 722 718 714 710 705 701 696 691 686 680 676 672 667 661 654 647 645 636 637 639 647 652 658 661 668 671 681 694 696 702 709 713 717 720 726 733 741
753 744 736 730 725 720 716 712 709 705 700 696 692 687 681 675 669 665 661 657 651 643 634 632 625 632 639 640 646 648 654 666 674 682 688 694 702 707 710 716 721 726 734
746 738 730 723 718 714 710 707 704 700 696 691 687 682 676 670 665 660 655 651 645 636 632 622 623 623 623 628 634 641 649 657 665 673 678 687 692 700 703 710 717 724 731
742 733 726 720 714 710 706 703 700 697 693 689 685 679 672 666 661 656 651 646 640 633 626 621 615 609 609 617 623 633 639 648 655 663 669 675 685 692 698 706 713 720 726
739 731 724 717 711 707 704 700 697 694 690 686 682 677 672 665 659 654 649 644 638 632 627 622 616 605 603 608 614 621 627 635 643 651 660 669 679 686 693 700 708 714 720
739 730 722 715 710 706 702 698 695 691 689 684 680 675 669 663 658 654 650 645 639 633 625 618 607 605 606 608 608 612 623 624 635 641 651 661 671 679 688 695 704 709 714
740 730 723 716 711 705 701 696 692 688 684 681 677 672 667 663 658 653 649 644 639 633 629 623 617 617 616 615 616 616 613 619 627 639 644 656 665 676 685 695 699 704 709
743 732 726 719 713 708 702 697 692 687 684 681 676 671 668 663 657 652 647 643 640 635 632 630 626 626 626 622 622 616 617 622 627 639 646 652 666 676 684 690 696 703 709
746 737 730 723 717 712 707 702 697 693 688 683 677 673 668 663 657 652 648 645 643 640 638 636 635 635 632 630 627 623 625 627 633 647 651 656 665 674 683 688 695 702 708
749 742 735 728 722 717 712 707 703 698 693 688 682 676 671 667 662 657 654 651 648 647 645 644 643 641 641 639 636 636 637 638 642 649 657 663 670 674 683 687 695 701 706
754 748 742 735 729 723 718 713 709 704 700 695 690 685 680 673 670 668 664 662 659 655 653 652 650 651 650 647 643 644 644 648 654 659 664 670 672 678 682 689 696 702 707
760 753 748 741 736 731 726 722 717 712 708 704 700 696 690 685 682 678 675 673 669 666 664 661 658 655 653 652 649 652 655 660 663 666 669 675 681 682 687 694 700 703 708
765 759 753 748 743 738 733 728 724 720 716 712 707 703 698 692 689 686 684 681 677 674 671 668 666 664 662 661 659 662 665 666 668 672 675 681 684 687 692 697 700 703 708
769 764 759 754 749 745 740 736 731 727 722 719 715 711 707 703 698 694 691 688 685 684 681 677 674 671 668 666 667 669 671 670 671 676 679 681 685 688 693 698 701 704 709
773 768 763 759 754 749 744 740 736 733 729 725 721 717 714 712 709 705 701 696 693 691 687 684 682 680 677 674 673 673 673 673 675 678 681 683 687 693 695 700 702 704 710
776 772 767 762 758 753 749 745 741 737 733 730 726 723 720 717 714 712 709 705 702 698 694 691 688 686 684 682 681 680 680 681 682 684 685 689 692 694 698 700 705 711 713
780 776 771 766 761 757 752 748 744 740 737 733 730 727 723 720 718 715 711 709 707 705 703 700 697 695 693 691 691 689 688 688 688 689 691 693 696 699 701 704 708 712 715
Wind_Speed
25 26 26 27 27 27 26 26 26 26 26 25 25 26 27 26 24 23 25 24 26 28 29 30 35 30 31 28 31 31 29 27 10 13 22 28 26 36 37 34 31 29 29
26 26 27 27 28 27 26 26 26 27 26 26 25 25 26 25 25 24 23 21 23 28 29 25 34 32 34 33 30 30 31 30 23 14 18 19 23 29 32 36 35 35 34
29 28 28 28 28 28 27 26 26 26 26 26 25 25 25 24 25 27 25 23 26 27 28 35 33 34 33 32 30 29 28 28 28 23 12 17 20 24 24 25 28 34 35
29 29 29 29 28 28 28 27 26 26 26 26 25 25 25 24 24 25 26 26 23 28 27 25 29 41 39 34 31 34 29 27 26 26 16 17 18 20 26 24 21 27 29
30 29 29 30 29 29 28 27 26 25 25 27 26 26 26 24 23 23 24 25 27 26 34 32 30 30 40 41 38 35 31 29 25 24 16 15 17 15 24 25 23 27 27
30 30 29 29 28 28 27 27 26 25 25 25 25 26 27 26 25 26 27 28 28 28 28 31 29 27 38 42 45 42 38 33 31 27 22 22 23 24 26 23 23 13 6
31 30 29 28 27 27 27 27 27 25 24 24 26 26 26 27 26 27 27 27 28 29 30 30 29 33 34 41 47 48 45 44 38 33 30 26 26 29 29 27 26 23 17
31 30 28 27 27 27 27 25 26 25 23 22 25 26 27 27 27 27 27 28 28 30 30 31 31 34 32 37 39 43 42 46 46 43 35 32 31 32 37 38 35 26 15
30 29 28 28 28 27 26 25 24 24 23 23 25 26 27 30 27 27 25 26 27 26 26 32 37 31 38 38 40 40 39 38 42 44 38 31 32 31 34 27 24 23 6
30 33 32 29 27 26 25 24 23 22 23 23 25 28 28 29 27 24 22 23 23 21 23 27 36 35 41 42 49 40 32 36 36 40 39 32 34 33 32 33 35 23 11
35 34 32 29 25 24 24 21 21 21 22 23 24 26 27 26 24 20 18 18 18 18 15 15 21 37 52 47 49 37 42 36 39 37 33 34 35 34 36 32 29 31 26
35 32 29 24 21 20 20 20 20 20 20 19 21 22 22 22 20 18 17 18 19 16 15 14 11 26 37 47 55 47 42 40 35 34 30 29 29 30 34 29 24 22 18
34 29 25 21 18 16 17 17 16 15 16 16 16 18 20 22 21 20 18 20 20 23 17 15 12 12 33 44 56 51 47 41 35 31 31 29 34 35 31 27 24 21 19
30 28 25 23 17 14 14 14 13 13 14 14 15 16 19 20 21 25 16 22 23 24 20 14 8 8 14 38 45 48 47 41 39 35 31 33 39 34 31 28 24 24 20
30 28 26 21 13 13 13 13 13 14 14 16 17 19 20 18 17 13 15 19 22 22 17 17 18 18 17 9 23 32 38 39 35 33 35 38 33 31 28 27 25 23 13
29 28 24 21 20 14 13 15 14 12 13 12 15 17 19 17 18 16 17 18 17 17 13 13 15 16 15 15 9 17 26 30 28 31 35 36 32 29 28 25 22 21 20
30 28 25 23 21 20 19 15 13 17 13 16 19 19 18 17 17 15 13 13 10 13 12 15 15 17 13 16 12 15 21 27 28 25 28 31 29 25 24 21 17 17 15
30 29 26 24 22 21 20 19 18 17 16 20 24 21 23 21 19 16 11 11 13 16 18 16 16 18 18 17 17 21 21 22 25 21 20 22 21 21 18 18 17 15 15
29 29 27 26 25 24 22 21 20 19 18 19 26 29 27 23 26 27 25 22 18 18 18 19 21 22 20 19 19 20 21 22 22 21 18 17 17 18 15 14 14 14 14
28 28 28 26 25 25 24 22 22 22 21 22 23 27 27 27 27 25 26 25 24 23 23 22 22 22 20 20 20 19 20 19 18 17 15 12 12 11 13 13 14 16 13
25 27 27 25 25 24 24 23 23 22 22 22 22 28 28 24 23 24 24 24 24 23 23 22 22 22 21 21 20 17 16 14 13 13 13 12 11 13 11 12 15 16 17
23 24 25 25 23 23 24 23 23 22 22 22 23 25 27 27 26 25 25 26 26 26 26 23 22 20 18 17 16 14 11 11 12 11 11 11 12 13 15 16 16 16 16
23 24 23 23 23 23 21 21 21 21 21 21 21 21 23 24 25 26 26 27 26 27 26 25 25 24 21 18 14 10 9 9 8 6 9 11 12 14 15 16 16 17 16
23 22 22 22 22 22 21 20 20 21 21 20 20 20 20 20 20 22 23 23 24 25 26 26 26 27 24 21 17 14 11 9 8 8 9 13 15 15 16 16 16 17 19
23 23 22 22 22 21 20 20 20 20 20 20 19 18 17 17 17 18 18 19 19 21 22 24 24 24 24 23 21 18 14 10 10 10 12 13 15 16 17 17 18 19 20
22 23 21 22 22 22 21 21 20 20 19 18 17 17 17 16 16 16 17 18 16 16 18 20 20 21 21 21 18 17 16 13 12 11 12 14 16 17 19 20 20 20 19
Wind_Direction
313 310 307 308 307 306 303 300 300 299 300 300 300 300 300 300 299 297 293 293 289 282 270 235 218 212 208 215 202 207 210 211 206 187 207 210 208 214 218 218 218 219 222
315 310 308 306 305 302 300 300 301 298 299 298 298 295 295 296 296 293 289 287 288 279 269 279 223 215 214 212 206 207 210 210 208 179 184 191 205 213 220 221 219 221 226
315 311 308 305 303 300 298 300 299 298 297 297 295 293 293 294 295 292 290 286 277 279 273 261 235 216 215 211 205 208 211 210 209 207 165 193 199 204 205 219 227 231 233
312 310 306 304 302 300 299 298 296 296 295 295 293 292 291 290 290 288 287 288 283 272 274 271 268 224 211 204 203 207 206 208 203 202 177 182 192 204 207 200 206 223 227
311 307 306 303 301 300 298 297 296 293 291 294 293 291 290 287 286 285 284 283 289 286 274 265 257 251 217 209 204 205 200 205 200 199 188 181 182 182 197 203 209 218 223
308 304 303 303 302 299 298 297 296 294 292 292 291 291 290 287 287 285 281 281 281 278 275 263 264 258 233 221 212 205 207 202 207 199 197 195 196 198 199 200 199 193 199
306 305 304 302 300 298 299 298 296 295 294 293 295 294 291 289 291 288 283 283 280 278 264 258 251 246 234 220 217 208 207 208 209 206 204 202 199 199 197 194 196 196 209
306 304 304 304 301 299 298 297 296 297 296 295 291 291 291 289 292 288 286 287 281 272 257 251 241 245 242 215 212 210 206 210 211 212 215 208 208 202 206 209 204 199 195
307 307 307 304 300 297 295 295 296 297 297 294 295 297 294 294 293 289 292 293 285 272 257 245 230 237 237 223 210 203 205 206 209 212 214 212 206 208 205 189 181 173 153
312 310 305 301 296 293 293 295 294 294 293 295 296 296 295 293 294 293 300 300 289 285 270 251 234 230 233 224 215 203 200 197 201 205 202 204 203 203 198 194 182 169 160
310 306 303 300 294 292 291 291 292 293 293 294 296 298 298 298 300 303 310 314 310 304 294 256 227 231 230 223 206 196 203 197 197 191 190 190 192 192 188 189 193 199 183
314 311 308 305 299 296 292 290 288 290 292 297 301 303 304 313 314 315 326 327 330 330 315 326 275 233 225 220 209 205 199 192 184 184 181 179 177 180 185 186 190 198 212
322 322 320 317 311 302 295 297 298 295 295 297 302 301 307 319 324 328 332 337 339 344 334 325 335 245 225 218 211 205 195 185 180 179 181 177 182 186 183 185 191 197 201
329 327 325 318 305 313 305 303 300 298 298 300 300 304 309 313 318 327 345 344 346 347 342 346 0 73 200 203 201 195 186 186 183 181 173 170 180 181 180 184 181 183 181
335 329 326 334 338 328 322 314 302 295 293 293 299 299 295 300 325 355 349 342 340 343 345 4 30 35 53 82 188 193 192 177 170 163 160 166 169 173 175 183 189 180 172
338 334 343 346 340 328 322 321 327 319 322 319 323 334 347 343 344 341 340 339 341 350 11 8 31 28 36 44 55 132 132 135 141 154 156 162 161 171 175 180 183 187 187
343 342 353 351 349 348 350 338 334 345 2 4 358 350 346 335 334 337 340 343 354 17 27 28 40 36 36 64 50 70 94 124 133 143 152 154 164 168 172 174 180 184 179
348 352 1 355 358 1 2 2 2 3 0 358 3 9 10 20 24 20 15 27 29 46 48 35 38 49 43 58 68 78 90 104 117 132 138 142 152 162 165 165 176 170 171
352 355 3 1 6 10 9 11 11 9 7 5 8 13 12 19 31 34 40 32 30 34 38 45 46 42 45 57 71 79 85 90 101 109 115 125 139 151 156 161 174 183 179
353 0 6 6 8 11 11 13 15 15 15 14 13 14 13 24 25 21 25 26 26 27 31 35 40 47 46 51 59 62 70 81 89 99 103 113 118 136 145 154 167 160 171
353 356 6 5 10 13 12 13 13 15 15 15 14 17 24 28 23 24 24 23 24 24 25 29 33 38 41 45 52 62 71 81 89 98 105 115 126 124 134 150 157 150 146
356 358 2 2 8 13 16 12 12 13 14 14 12 15 22 23 22 22 23 23 24 28 31 33 33 35 38 44 54 60 73 85 90 97 108 122 130 132 136 140 138 138 143
360 359 1 4 5 10 14 17 14 14 12 11 13 15 17 17 17 18 17 21 26 33 38 37 35 37 39 43 47 56 64 71 86 104 125 129 129 131 136 136 139 138 138
1 360 359 2 4 8 9 10 10 16 15 14 13 13 14 15 17 17 19 23 30 34 40 44 46 45 44 45 48 54 62 68 89 109 125 126 128 134 136 136 137 136 137
1 359 0 359 357 358 358 360 1 3 12 12 11 11 11 12 11 13 17 24 25 29 34 40 41 43 43 44 45 50 58 73 92 108 117 127 127 126 130 131 131 134 136
1 1 0 359 358 356 356 354 353 354 355 356 5 6 5 6 8 8 13 18 26 27 34 39 40 42 46 45 44 52 59 68 83 101 117 125 126 126 129 130 133 133 132